This demonstration page uses our WeatherBlox Daily Observations layout. Learn more.

Left ArrowRight Arrow

31.84235, -102.49876

Hourly Observations for May 14, 2021

Temp ( °F °C ) Dew Point ( °F °C ) Humidity (%) Winds ( mph kmh ) Pressure ( in mb ) Visibility ( mi km ) Precip ( " mm )
12:53 am 00:53 Clear 63 17.2 52 11.1 68 68 SE 15 24 30.09 1019 10 16 0.00 0.00
1:53 am 01:53 Clear 62 16.7 52 11.1 70 70 SSE 13 20 30.07 1018 10 16 0.00 0.00
2:53 am 02:53 Clear 61 16.1 52 11.1 72 72 SE 8 13 30.05 1018 10 16 0.00 0.00
3:53 am 03:53 Clear 60 15.6 52 11.1 75 75 SSE 6 9 30.05 1018 10 16 0.00 0.00
4:53 am 04:53 Clear 59 15 52 11.1 78 78 SE 7 11 30.04 1017 10 16 0.00 0.00
5:53 am 05:53 Clear 60 15.6 54 12.2 80 80 SSE 9 15 30.03 1017 10 16 0.00 0.00
6:53 am 06:53 Sunny 60 15.6 55 12.8 84 84 SSE 13 20 30.03 1017 10 16 0.00 0.00
7:53 am 07:53 Mostly Sunny 60 15.6 54 12.2 80 80 SSE 16 26 30.05 1018 10 16 0.00 0.00
8:07 am 08:07 Mostly Cloudy 60 15.6 55 12.8 84 84 SSE 20 31 30.09 1019 10 16 0.00 0.00
8:53 am 08:53 Cloudy 61 16.1 55 12.8 81 81 S 17 28 30.06 1018 10 16 0.00 0.00
9:53 am 09:53 Cloudy 64 17.8 55 12.8 73 73 S 17 28 30.07 1018 10 16 0.00 0.00
10:14 am 10:14 Mostly Cloudy 66 18.9 55 12.8 68 68 S 17 28 30.06 1018 10 16 0.00 0.00
10:32 am 10:32 Mostly Sunny 68 20 55 12.8 63 63 S 16 26 30.05 1018 10 16 0.00 0.00
10:53 am 10:53 Sunny 68 20 55 12.8 63 63 S 13 20 30.06 1018 10 16 0.00 0.00
11:53 am 11:53 Sunny 73 22.8 56 13.3 55 55 SSE 16 26 30.04 1017 10 16 0.00 0.00
12:53 pm 12:53 Sunny 76 24.4 56 13.3 50 50 S 15 24 30.03 1017 10 16 0.00 0.00
1:53 pm 13:53 Sunny 79 26.1 55 12.8 44 44 SSE 15 24 30.01 1016 10 16 0.00 0.00
2:53 pm 14:53 Sunny 83 28.3 54 12.2 37 37 SSE 17 28 29.97 1015 10 16 0.00 0.00
3:53 pm 15:53 Sunny 84 28.9 53 11.7 34 34 SSE 17 28 29.94 1014 10 16 0.00 0.00
4:53 pm 16:53 Sunny 85 29.4 52 11.1 32 32 SSE 20 31 29.90 1013 10 16 0.00 0.00
5:53 pm 17:53 Sunny 84 28.9 48 8.9 29 29 S 18 30 29.87 1012 10 16 0.00 0.00
6:53 pm 18:53 Sunny 83 28.3 51 10.6 33 33 SSE 24 39 29.86 1011 10 16 0.00 0.00
7:53 pm 19:53 Sunny 77 25 53 11.7 43 43 SSE 23 37 29.88 1012 10 16 0.00 0.00
8:53 pm 20:53 Clear 74 23.3 54 12.2 50 50 SSE 18 30 29.89 1012 10 16 0.00 0.00
9:53 pm 21:53 Clear 71 21.7 56 13.3 59 59 SSE 17 28 29.93 1013 10 16 0.00 0.00
10:53 pm 22:53 Mostly Cloudy 70 21.1 56 13.3 61 61 SSE 14 22 29.96 1015 10 16 0.00 0.00
11:53 pm 23:53 Partly Cloudy 69 20.6 56 13.3 63 63 SSE 17 28 29.97 1015 10 16 0.00 0.00

Powered by AerisWeather